Time,TemperatureF,DewpointF,PressureIn,WindDirection,WindDirectionDegrees,WindSpeedMPH,WindSpeedGustMPH,Humidity,HourlyPrecipIn,Conditions,Clouds,dailyrainin,SoftwareType,DateUTC
2013-09-10 00:01:00,58.6,59.0,29.52,SW,225,7.7,13.0,100,0.00,,,0.00,Rainwise IP-100,2013-09-10 07:01:00,
2013-09-10 00:06:00,58.6,59.0,29.52,SW,225,5.8,12.0,100,0.00,,,0.00,Rainwise IP-100,2013-09-10 07:06:00,
2013-09-10 00:11:00,58.6,59.0,29.52,WSW,247,6.8,13.0,100,0.00,,,0.00,Rainwise IP-100,2013-09-10 07:11:00,
2013-09-10 00:16:00,58.6,59.0,29.52,SW,225,5.6,14.0,100,0.00,,,0.00,Rainwise IP-100,2013-09-10 07:16:00,
2013-09-10 00:21:00,58.6,59.0,29.52,WSW,247,7.2,13.0,100,0.00,,,0.00,Rainwise IP-100,2013-09-10 07:21:00,
2013-09-10 00:26:00,58.6,59.0,29.52,SW,225,6.8,14.0,100,0.00,,,0.00,Rainwise IP-100,2013-09-10 07:26:00,
2013-09-10 00:31:00,58.5,59.0,29.52,SW,225,5.1,13.0,100,0.00,,,0.00,Rainwise IP-100,2013-09-10 07:31:00,
2013-09-10 00:36:00,58.6,59.0,29.52,SSW,202,6.3,14.0,100,0.00,,,0.00,Rainwise IP-100,2013-09-10 07:36:00,
2013-09-10 00:41:00,58.5,59.0,29.52,SW,225,5.1,13.0,100,0.00,,,0.00,Rainwise IP-100,2013-09-10 07:41:00,
2013-09-10 00:46:00,58.4,58.0,29.52,SW,225,7.2,13.0,100,0.00,,,0.00,Rainwise IP-100,2013-09-10 07:46:00,
2013-09-10 00:51:00,58.4,58.0,29.52,SSW,202,4.0,16.0,100,0.00,,,0.00,Rainwise IP-100,2013-09-10 07:51:00,
2013-09-10 00:56:00,58.4,58.0,29.52,SW,225,7.7,12.0,100,0.00,,,0.00,Rainwise IP-100,2013-09-10 07:56:00,
2013-09-10 01:01:00,58.5,59.0,29.52,South,180,7.7,13.0,100,0.00,,,0.00,Rainwise IP-100,2013-09-10 08:01:00,
2013-09-10 01:06:00,58.5,59.0,29.52,SW,225,4.2,11.0,100,0.00,,,0.00,Rainwise IP-100,2013-09-10 08:06:00,
2013-09-10 01:11:00,58.5,59.0,29.53,WSW,247,6.5,10.0,100,0.00,,,0.00,Rainwise IP-100,2013-09-10 08:11:00,
2013-09-10 01:16:00,58.5,59.0,29.52,WSW,247,6.8,14.0,100,0.00,,,0.00,Rainwise IP-100,2013-09-10 08:16:00,
2013-09-10 01:21:00,58.5,59.0,29.52,WSW,247,8.6,12.0,100,0.00,,,0.00,Rainwise IP-100,2013-09-10 08:21:00,
2013-09-10 01:26:00,58.6,59.0,29.53,South,180,7.0,12.0,100,0.00,,,0.00,Rainwise IP-100,2013-09-10 08:26:00,
2013-09-10 01:31:00,58.5,59.0,29.52,SSW,202,7.0,15.0,100,0.00,,,0.00,Rainwise IP-100,2013-09-10 08:31:00,
2013-09-10 01:36:00,58.5,59.0,29.53,WSW,247,5.1,15.0,100,0.00,,,0.00,Rainwise IP-100,2013-09-10 08:36:00,
2013-09-10 01:41:00,58.4,58.0,29.52,WSW,247,8.6,14.0,100,0.00,,,0.00,Rainwise IP-100,2013-09-10 08:41:00,
2013-09-10 01:46:00,58.3,58.0,29.52,SSW,202,4.7,12.0,100,0.00,,,0.00,Rainwise IP-100,2013-09-10 08:46:00,
2013-09-10 01:51:00,58.3,58.0,29.52,SW,225,8.2,14.0,100,0.00,,,0.00,Rainwise IP-100,2013-09-10 08:51:00,
2013-09-10 01:56:00,58.2,58.0,29.52,SSW,202,12.6,14.0,100,0.00,,,0.00,Rainwise IP-100,2013-09-10 08:56:00,
2013-09-10 02:01:00,58.2,58.0,29.52,SSW,202,3.3,14.0,100,0.00,,,0.00,Rainwise IP-100,2013-09-10 09:01:00,
2013-09-10 02:06:00,58.1,58.0,29.53,SSW,202,4.4,15.0,100,0.00,,,0.00,Rainwise IP-100,2013-09-10 09:06:00,
2013-09-10 02:11:00,58.1,58.0,29.52,SSW,202,8.6,16.0,100,0.00,,,0.00,Rainwise IP-100,2013-09-10 09:11:00,
2013-09-10 02:16:00,58.0,58.0,29.52,SW,225,8.6,14.0,100,0.00,,,0.00,Rainwise IP-100,2013-09-10 09:16:00,
2013-09-10 02:21:00,57.9,58.0,29.52,SW,225,8.6,14.0,100,0.00,,,0.00,Rainwise IP-100,2013-09-10 09:21:00,
2013-09-10 02:26:00,57.8,57.0,29.52,SW,225,11.7,13.0,100,0.00,,,0.00,Rainwise IP-100,2013-09-10 09:26:00,
2013-09-10 02:31:00,57.7,57.0,29.52,SSW,202,11.4,15.0,100,0.00,,,0.00,Rainwise IP-100,2013-09-10 09:31:00,
2013-09-10 02:36:00,57.6,57.0,29.52,SSW,202,5.8,12.0,100,0.00,,,0.00,Rainwise IP-100,2013-09-10 09:36:00,
2013-09-10 02:41:00,57.6,57.0,29.52,SSW,202,5.8,13.0,100,0.00,,,0.00,Rainwise IP-100,2013-09-10 09:41:00,
2013-09-10 02:46:00,57.6,57.0,29.52,WSW,247,7.2,16.0,100,0.00,,,0.00,Rainwise IP-100,2013-09-10 09:46:00,
2013-09-10 02:51:00,57.5,57.0,29.52,SW,225,9.1,14.0,100,0.00,,,0.00,Rainwise IP-100,2013-09-10 09:51:00,
2013-09-10 02:56:00,57.4,57.0,29.52,SW,225,5.8,16.0,100,0.00,,,0.00,Rainwise IP-100,2013-09-10 09:56:00,
2013-09-10 03:01:00,57.3,57.0,29.52,SSW,202,7.7,15.0,100,0.00,,,0.00,Rainwise IP-100,2013-09-10 10:01:00,
2013-09-10 03:06:00,57.3,57.0,29.52,SW,225,15.6,15.6,100,0.00,,,0.00,Rainwise IP-100,2013-09-10 10:06:00,
2013-09-10 03:11:00,57.2,57.0,29.52,WSW,247,12.6,17.0,100,0.00,,,0.00,Rainwise IP-100,2013-09-10 10:11:00,
2013-09-10 03:16:00,57.2,57.0,29.52,SW,225,6.1,13.0,100,0.00,,,0.00,Rainwise IP-100,2013-09-10 10:16:00,
2013-09-10 03:21:00,57.2,57.0,29.53,SW,225,4.0,13.0,100,0.00,,,0.00,Rainwise IP-100,2013-09-10 10:21:00,
2013-09-10 03:26:00,57.2,57.0,29.52,SSW,202,10.7,21.0,100,0.00,,,0.00,Rainwise IP-100,2013-09-10 10:26:00,
2013-09-10 03:31:00,57.2,57.0,29.52,WSW,247,12.8,18.0,100,0.00,,,0.00,Rainwise IP-100,2013-09-10 10:31:00,
2013-09-10 03:36:00,57.1,57.0,29.52,WSW,247,7.9,17.0,100,0.00,,,0.00,Rainwise IP-100,2013-09-10 10:36:00,
2013-09-10 03:41:00,57.0,57.0,29.52,SW,225,8.9,14.0,100,0.00,,,0.00,Rainwise IP-100,2013-09-10 10:41:00,
2013-09-10 03:46:00,56.9,57.0,29.52,SW,225,15.2,15.2,100,0.00,,,0.00,Rainwise IP-100,2013-09-10 10:46:00,
2013-09-10 03:51:00,56.9,57.0,29.52,SW,225,7.2,15.0,100,0.00,,,0.00,Rainwise IP-100,2013-09-10 10:51:00,
2013-09-10 03:56:00,56.9,57.0,29.53,SSW,202,6.8,17.0,100,0.00,,,0.00,Rainwise IP-100,2013-09-10 10:56:00,
2013-09-10 04:01:00,56.9,57.0,29.53,WSW,247,13.3,18.0,100,0.00,,,0.00,Rainwise IP-100,2013-09-10 11:01:00,
2013-09-10 04:06:00,56.9,57.0,29.52,SSW,202,6.8,18.0,100,0.00,,,0.00,Rainwise IP-100,2013-09-10 11:06:00,
2013-09-10 04:11:00,56.9,57.0,29.52,SSW,202,6.5,15.0,100,0.00,,,0.00,Rainwise IP-100,2013-09-10 11:11:00,
2013-09-10 04:16:00,57.0,57.0,29.53,SW,225,6.5,12.0,100,0.00,,,0.00,Rainwise IP-100,2013-09-10 11:16:00,
2013-09-10 04:21:00,57.0,57.0,29.53,WSW,247,9.1,14.0,100,0.00,,,0.00,Rainwise IP-100,2013-09-10 11:21:00,
2013-09-10 04:26:00,57.0,57.0,29.53,WSW,247,2.6,12.0,100,0.00,,,0.00,Rainwise IP-100,2013-09-10 11:26:00,
2013-09-10 04:31:00,57.0,57.0,29.54,WSW,247,5.4,11.0,100,0.00,,,0.00,Rainwise IP-100,2013-09-10 11:31:00,
2013-09-10 04:36:00,57.0,57.0,29.54,WSW,247,8.6,12.0,100,0.00,,,0.00,Rainwise IP-100,2013-09-10 11:36:00,
2013-09-10 04:41:00,57.0,57.0,29.53,SSW,202,8.2,14.0,100,0.00,,,0.00,Rainwise IP-100,2013-09-10 11:41:00,
2013-09-10 04:46:00,57.0,57.0,29.53,SSW,202,6.8,14.0,100,0.00,,,0.00,Rainwise IP-100,2013-09-10 11:46:00,
2013-09-10 04:51:00,57.0,57.0,29.53,WSW,247,7.2,14.0,100,0.00,,,0.00,Rainwise IP-100,2013-09-10 11:51:00,
2013-09-10 04:56:00,57.0,57.0,29.53,SW,225,4.9,13.0,100,0.00,,,0.00,Rainwise IP-100,2013-09-10 11:56:00,
2013-09-10 05:01:00,57.1,57.0,29.54,SW,225,6.3,12.0,100,0.00,,,0.00,Rainwise IP-100,2013-09-10 12:01:00,
2013-09-10 05:06:00,57.1,57.0,29.54,WSW,247,6.8,14.0,100,0.00,,,0.00,Rainwise IP-100,2013-09-10 12:06:00,
2013-09-10 05:11:00,57.2,57.0,29.53,SSW,202,6.1,17.0,100,0.00,,,0.00,Rainwise IP-100,2013-09-10 12:11:00,
2013-09-10 05:16:00,57.2,57.0,29.54,SW,225,11.9,14.0,100,0.00,,,0.00,Rainwise IP-100,2013-09-10 12:16:00,
2013-09-10 05:21:00,57.2,57.0,29.54,SW,225,8.9,15.0,100,0.00,,,0.00,Rainwise IP-100,2013-09-10 12:21:00,
2013-09-10 05:26:00,57.2,57.0,29.54,SW,225,9.3,14.0,100,0.00,,,0.00,Rainwise IP-100,2013-09-10 12:26:00,
2013-09-10 05:31:00,57.3,57.0,29.54,SW,225,4.2,13.0,100,0.00,,,0.00,Rainwise IP-100,2013-09-10 12:31:00,
2013-09-10 05:36:00,57.3,57.0,29.54,WSW,247,6.1,8.0,100,0.00,,,0.00,Rainwise IP-100,2013-09-10 12:36:00,
2013-09-10 05:41:00,57.4,57.0,29.53,WSW,247,4.4,10.0,100,0.00,,,0.00,Rainwise IP-100,2013-09-10 12:41:00,
2013-09-10 05:46:00,57.5,57.0,29.54,SSW,202,4.0,11.0,100,0.00,,,0.00,Rainwise IP-100,2013-09-10 12:46:00,
2013-09-10 05:51:00,57.5,57.0,29.54,WSW,247,4.2,8.0,100,0.00,,,0.00,Rainwise IP-100,2013-09-10 12:51:00,
2013-09-10 05:56:00,57.5,57.0,29.54,WSW,247,6.1,10.0,100,0.00,,,0.00,Rainwise IP-100,2013-09-10 12:56:00,
2013-09-10 06:01:00,57.6,57.0,29.54,SW,225,6.1,10.0,100,0.00,,,0.00,Rainwise IP-100,2013-09-10 13:01:00,
2013-09-10 06:06:00,57.5,57.0,29.55,SSW,202,1.9,8.0,100,0.00,,,0.00,Rainwise IP-100,2013-09-10 13:06:00,
2013-09-10 06:11:00,57.5,57.0,29.54,SW,225,8.4,11.0,100,0.00,,,0.00,Rainwise IP-100,2013-09-10 13:11:00,
2013-09-10 06:16:00,57.5,57.0,29.55,WSW,247,12.6,12.6,100,0.00,,,0.00,Rainwise IP-100,2013-09-10 13:16:00,
2013-09-10 06:21:00,57.5,57.0,29.55,SW,225,5.8,14.0,100,0.00,,,0.00,Rainwise IP-100,2013-09-10 13:21:00,
2013-09-10 06:26:00,57.5,57.0,29.54,SSW,202,11.9,18.0,100,0.06,,,0.01,Rainwise IP-100,2013-09-10 13:26:00,
2013-09-10 06:31:00,57.5,57.0,29.55,West,270,7.7,13.0,100,0.06,,,0.01,Rainwise IP-100,2013-09-10 13:31:00,
2013-09-10 06:36:00,57.5,57.0,29.55,WSW,247,3.3,10.0,100,0.00,,,0.01,Rainwise IP-100,2013-09-10 13:36:00,
2013-09-10 06:41:00,57.5,57.0,29.55,WSW,247,3.3,13.0,100,0.00,,,0.01,Rainwise IP-100,2013-09-10 13:41:00,
2013-09-10 06:46:00,57.6,57.0,29.55,SSW,202,3.7,10.0,100,0.00,,,0.01,Rainwise IP-100,2013-09-10 13:46:00,
2013-09-10 06:51:00,57.6,57.0,29.56,SW,225,8.9,14.0,100,0.00,,,0.01,Rainwise IP-100,2013-09-10 13:51:00,
2013-09-10 06:56:00,57.6,57.0,29.56,WSW,247,8.2,15.0,100,0.00,,,0.01,Rainwise IP-100,2013-09-10 13:56:00,
2013-09-10 07:01:00,57.6,57.0,29.55,SSW,202,7.5,14.0,100,0.00,,,0.01,Rainwise IP-100,2013-09-10 14:01:00,
2013-09-10 07:06:00,57.7,57.0,29.55,SW,225,5.8,15.0,100,0.00,,,0.01,Rainwise IP-100,2013-09-10 14:06:00,
2013-09-10 07:11:00,57.7,57.0,29.56,SW,225,8.2,13.0,100,0.00,,,0.01,Rainwise IP-100,2013-09-10 14:11:00,
2013-09-10 07:16:00,57.6,57.0,29.56,SW,225,14.5,16.0,100,0.00,,,0.01,Rainwise IP-100,2013-09-10 14:16:00,
2013-09-10 07:21:00,57.7,57.0,29.56,WSW,247,9.6,14.0,100,0.00,,,0.01,Rainwise IP-100,2013-09-10 14:21:00,
2013-09-10 07:26:00,57.8,57.0,29.56,SW,225,8.2,14.0,100,0.00,,,0.01,Rainwise IP-100,2013-09-10 14:26:00,
2013-09-10 07:31:00,57.8,57.0,29.56,West,270,5.1,13.0,100,0.00,,,0.01,Rainwise IP-100,2013-09-10 14:31:00,
2013-09-10 07:36:00,57.9,58.0,29.56,SW,225,9.3,10.0,100,0.00,,,0.01,Rainwise IP-100,2013-09-10 14:36:00,
2013-09-10 07:41:00,58.0,58.0,29.57,SW,225,4.9,13.0,100,0.00,,,0.01,Rainwise IP-100,2013-09-10 14:41:00,
2013-09-10 07:46:00,58.0,58.0,29.57,SW,225,6.5,16.0,100,0.00,,,0.01,Rainwise IP-100,2013-09-10 14:46:00,
2013-09-10 07:51:00,58.0,58.0,29.57,SW,225,4.9,16.0,100,0.00,,,0.01,Rainwise IP-100,2013-09-10 14:51:00,
2013-09-10 07:56:00,58.1,58.0,29.57,SW,225,5.8,8.0,100,0.00,,,0.01,Rainwise IP-100,2013-09-10 14:56:00,
2013-09-10 08:01:00,58.1,58.0,29.57,WNW,292,2.1,12.0,100,0.00,,,0.01,Rainwise IP-100,2013-09-10 15:01:00,
2013-09-10 08:06:00,58.2,58.0,29.57,WSW,247,7.2,11.0,100,0.00,,,0.01,Rainwise IP-100,2013-09-10 15:06:00,
2013-09-10 08:11:00,58.2,58.0,29.57,SSW,202,3.7,14.0,100,0.00,,,0.01,Rainwise IP-100,2013-09-10 15:11:00,
2013-09-10 08:16:00,58.2,58.0,29.58,SW,225,11.4,15.0,100,0.00,,,0.01,Rainwise IP-100,2013-09-10 15:16:00,
2013-09-10 08:21:00,58.2,58.0,29.58,SSW,202,8.4,14.0,100,0.00,,,0.01,Rainwise IP-100,2013-09-10 15:21:00,
2013-09-10 08:26:00,58.3,58.0,29.58,SW,225,4.7,14.0,100,0.00,,,0.01,Rainwise IP-100,2013-09-10 15:26:00,
2013-09-10 08:31:00,58.5,59.0,29.58,West,270,2.6,9.0,100,0.00,,,0.01,Rainwise IP-100,2013-09-10 15:31:00,
2013-09-10 08:36:00,58.7,59.0,29.59,WSW,247,4.9,10.0,100,0.00,,,0.01,Rainwise IP-100,2013-09-10 15:36:00,
2013-09-10 08:41:00,58.9,59.0,29.58,SW,225,7.9,8.0,100,0.00,,,0.01,Rainwise IP-100,2013-09-10 15:41:00,
2013-09-10 08:46:00,59.0,59.0,29.58,SW,225,6.3,12.0,100,0.00,,,0.01,Rainwise IP-100,2013-09-10 15:46:00,
2013-09-10 08:51:00,59.0,59.0,29.59,SW,225,7.5,13.0,100,0.00,,,0.01,Rainwise IP-100,2013-09-10 15:51:00,
2013-09-10 08:56:00,59.1,59.0,29.59,SW,225,3.0,9.0,100,0.00,,,0.01,Rainwise IP-100,2013-09-10 15:56:00,
2013-09-10 09:01:00,59.4,59.0,29.59,SSW,202,4.2,6.0,100,0.00,,,0.01,Rainwise IP-100,2013-09-10 16:01:00,
2013-09-10 09:06:00,60.0,60.0,29.59,SSW,202,5.6,7.0,100,0.00,,,0.01,Rainwise IP-100,2013-09-10 16:06:00,
2013-09-10 09:11:00,60.6,60.0,29.59,WSW,247,6.3,7.0,100,0.00,,,0.01,Rainwise IP-100,2013-09-10 16:11:00,
2013-09-10 09:16:00,60.8,60.0,29.59,SSW,202,6.8,9.0,100,0.00,,,0.01,Rainwise IP-100,2013-09-10 16:16:00,
2013-09-10 09:21:00,60.9,61.0,29.59,WSW,247,2.3,8.0,100,0.00,,,0.01,Rainwise IP-100,2013-09-10 16:21:00,
2013-09-10 09:26:00,60.8,60.0,29.59,SSW,202,4.7,9.0,100,0.00,,,0.01,Rainwise IP-100,2013-09-10 16:26:00,
2013-09-10 09:31:00,60.8,60.0,29.59,WSW,247,2.3,5.0,100,0.00,,,0.01,Rainwise IP-100,2013-09-10 16:31:00,
2013-09-10 09:36:00,60.8,60.0,29.59,WSW,247,1.9,4.0,100,0.00,,,0.01,Rainwise IP-100,2013-09-10 16:36:00,
2013-09-10 09:41:00,61.1,61.0,29.59,WSW,247,2.3,5.0,100,0.00,,,0.01,Rainwise IP-100,2013-09-10 16:41:00,
2013-09-10 09:46:00,61.7,61.0,29.59,SSW,202,4.0,7.0,99,0.00,,,0.01,Rainwise IP-100,2013-09-10 16:46:00,
2013-09-10 09:51:00,62.1,61.0,29.59,SW,225,3.5,7.0,99,0.00,,,0.01,Rainwise IP-100,2013-09-10 16:51:00,
2013-09-10 09:56:00,62.4,62.0,29.59,SW,225,6.3,8.0,98,0.00,,,0.01,Rainwise IP-100,2013-09-10 16:56:00,
2013-09-10 10:01:00,62.8,62.0,29.60,WSW,247,5.4,8.0,98,0.00,,,0.01,Rainwise IP-100,2013-09-10 17:01:00,
2013-09-10 10:06:00,63.0,62.0,29.59,WNW,292,4.9,9.0,97,0.00,,,0.01,Rainwise IP-100,2013-09-10 17:06:00,
2013-09-10 10:11:00,63.2,62.0,29.60,SW,225,7.0,7.0,96,0.00,,,0.01,Rainwise IP-100,2013-09-10 17:11:00,
2013-09-10 10:16:00,63.6,62.0,29.60,WSW,247,7.5,8.0,95,0.00,,,0.01,Rainwise IP-100,2013-09-10 17:16:00,
2013-09-10 10:21:00,63.7,61.0,29.59,WSW,247,4.4,10.0,94,0.00,,,0.01,Rainwise IP-100,2013-09-10 17:21:00,
2013-09-10 10:26:00,63.6,61.0,29.60,SSW,202,3.5,12.0,94,0.00,,,0.01,Rainwise IP-100,2013-09-10 17:26:00,
2013-09-10 10:31:00,63.5,61.0,29.60,SW,225,4.7,11.0,93,0.00,,,0.01,Rainwise IP-100,2013-09-10 17:31:00,
2013-09-10 10:36:00,63.5,61.0,29.60,SW,225,8.2,10.0,93,0.00,,,0.01,Rainwise IP-100,2013-09-10 17:36:00,
2013-09-10 10:41:00,63.4,61.0,29.60,SW,225,9.1,12.0,93,0.00,,,0.01,Rainwise IP-100,2013-09-10 17:41:00,
2013-09-10 10:46:00,63.3,60.0,29.60,SSW,202,7.2,11.0,92,0.00,,,0.01,Rainwise IP-100,2013-09-10 17:46:00,
2013-09-10 10:51:00,63.7,61.0,29.59,SSW,202,6.5,10.0,92,0.00,,,0.01,Rainwise IP-100,2013-09-10 17:51:00,
2013-09-10 10:56:00,64.0,61.0,29.60,SSW,202,6.1,10.0,91,0.00,,,0.01,Rainwise IP-100,2013-09-10 17:56:00,
2013-09-10 11:01:00,64.1,61.0,29.60,WSW,247,9.1,11.0,90,0.00,,,0.01,Rainwise IP-100,2013-09-10 18:01:00,
2013-09-10 11:06:00,64.3,61.0,29.60,WNW,292,3.3,13.0,90,0.00,,,0.01,Rainwise IP-100,2013-09-10 18:06:00,
2013-09-10 11:11:00,64.6,61.0,29.60,SW,225,8.6,11.0,89,0.00,,,0.01,Rainwise IP-100,2013-09-10 18:11:00,
2013-09-10 11:16:00,64.6,61.0,29.60,WSW,247,11.4,13.0,89,0.00,,,0.01,Rainwise IP-100,2013-09-10 18:16:00,
2013-09-10 11:21:00,64.3,60.0,29.60,SSW,202,5.1,12.0,89,0.00,,,0.01,Rainwise IP-100,2013-09-10 18:21:00,
2013-09-10 11:26:00,64.3,61.0,29.60,SW,225,7.2,12.0,90,0.00,,,0.01,Rainwise IP-100,2013-09-10 18:26:00,
2013-09-10 11:31:00,64.5,61.0,29.61,WSW,247,4.0,15.0,90,0.00,,,0.01,Rainwise IP-100,2013-09-10 18:31:00,
2013-09-10 11:36:00,64.6,61.0,29.61,SSW,202,7.5,16.0,90,0.00,,,0.01,Rainwise IP-100,2013-09-10 18:36:00,
2013-09-10 11:41:00,64.6,61.0,29.61,SSW,202,7.2,14.0,89,0.00,,,0.01,Rainwise IP-100,2013-09-10 18:41:00,
2013-09-10 11:46:00,64.7,61.0,29.61,SSW,202,9.3,15.0,89,0.00,,,0.01,Rainwise IP-100,2013-09-10 18:46:00,
2013-09-10 11:51:00,64.7,61.0,29.61,SSW,202,8.9,21.0,89,0.00,,,0.01,Rainwise IP-100,2013-09-10 18:51:00,
2013-09-10 11:56:00,64.9,61.0,29.61,WSW,247,3.7,14.0,88,0.00,,,0.01,Rainwise IP-100,2013-09-10 18:56:00,
2013-09-10 12:01:00,65.7,61.0,29.61,SSW,202,3.0,13.0,88,0.00,,,0.01,Rainwise IP-100,2013-09-10 19:01:00,
2013-09-10 12:06:00,66.0,62.0,29.61,SSW,202,6.3,15.0,87,0.00,,,0.01,Rainwise IP-100,2013-09-10 19:06:00,
2013-09-10 12:11:00,65.8,61.0,29.61,SSW,202,8.2,16.0,87,0.00,,,0.01,Rainwise IP-100,2013-09-10 19:11:00,
2013-09-10 12:16:00,65.6,61.0,29.61,SW,225,12.1,14.0,87,0.00,,,0.01,Rainwise IP-100,2013-09-10 19:16:00,
2013-09-10 12:21:00,65.6,61.0,29.61,SW,225,12.4,18.0,87,0.00,,,0.01,Rainwise IP-100,2013-09-10 19:21:00,
2013-09-10 12:26:00,65.2,61.0,29.61,WNW,292,5.4,19.0,87,0.00,,,0.01,Rainwise IP-100,2013-09-10 19:26:00,
2013-09-10 12:31:00,65.1,61.0,29.61,SW,225,7.9,16.0,87,0.00,,,0.01,Rainwise IP-100,2013-09-10 19:31:00,
2013-09-10 12:36:00,65.3,61.0,29.61,WSW,247,8.6,22.0,87,0.00,,,0.01,Rainwise IP-100,2013-09-10 19:36:00,
2013-09-10 12:41:00,65.2,61.0,29.61,WSW,247,13.8,16.0,87,0.00,,,0.01,Rainwise IP-100,2013-09-10 19:41:00,
2013-09-10 12:46:00,65.3,61.0,29.60,SSW,202,6.5,21.0,87,0.00,,,0.01,Rainwise IP-100,2013-09-10 19:46:00,
2013-09-10 12:51:00,65.5,61.0,29.61,WSW,247,10.0,15.0,86,0.00,,,0.01,Rainwise IP-100,2013-09-10 19:51:00,
2013-09-10 12:56:00,65.7,61.0,29.61,SW,225,5.6,16.0,86,0.00,,,0.01,Rainwise IP-100,2013-09-10 19:56:00,
2013-09-10 13:01:00,65.6,61.0,29.61,WNW,292,8.6,17.0,85,0.00,,,0.01,Rainwise IP-100,2013-09-10 20:01:00,
2013-09-10 13:06:00,65.7,61.0,29.61,WSW,247,12.1,20.0,85,0.00,,,0.01,Rainwise IP-100,2013-09-10 20:06:00,
2013-09-10 13:11:00,66.0,61.0,29.61,WSW,247,5.4,13.0,85,0.00,,,0.01,Rainwise IP-100,2013-09-10 20:11:00,
2013-09-10 13:16:00,65.8,60.0,29.61,SSW,202,6.5,20.0,84,0.00,,,0.01,Rainwise IP-100,2013-09-10 20:16:00,
2013-09-10 13:21:00,65.3,60.0,29.61,SW,225,3.3,23.0,84,0.00,,,0.01,Rainwise IP-100,2013-09-10 20:21:00,
2013-09-10 13:26:00,65.6,61.0,29.61,SW,225,10.7,14.0,85,0.00,,,0.01,Rainwise IP-100,2013-09-10 20:26:00,
2013-09-10 13:31:00,65.9,61.0,29.61,SSW,202,12.4,19.0,84,0.00,,,0.01,Rainwise IP-100,2013-09-10 20:31:00,
2013-09-10 13:36:00,65.8,60.0,29.61,SW,225,8.9,19.0,84,0.00,,,0.01,Rainwise IP-100,2013-09-10 20:36:00,
2013-09-10 13:41:00,65.7,60.0,29.61,WSW,247,8.4,20.0,84,0.00,,,0.01,Rainwise IP-100,2013-09-10 20:41:00,
2013-09-10 13:46:00,65.6,60.0,29.61,SW,225,15.2,24.0,84,0.00,,,0.01,Rainwise IP-100,2013-09-10 20:46:00,
2013-09-10 13:51:00,65.6,60.0,29.61,SSW,202,7.0,19.0,84,0.00,,,0.01,Rainwise IP-100,2013-09-10 20:51:00,
2013-09-10 13:56:00,65.6,60.0,29.61,SW,225,5.8,19.0,84,0.00,,,0.01,Rainwise IP-100,2013-09-10 20:56:00,
2013-09-10 14:01:00,65.6,60.0,29.60,SW,225,7.2,18.0,84,0.00,,,0.01,Rainwise IP-100,2013-09-10 21:01:00,
2013-09-10 14:06:00,65.7,60.0,29.61,WSW,247,7.0,20.0,84,0.00,,,0.01,Rainwise IP-100,2013-09-10 21:06:00,
2013-09-10 14:11:00,65.6,60.0,29.61,SSW,202,9.3,26.0,84,0.00,,,0.01,Rainwise IP-100,2013-09-10 21:11:00,
2013-09-10 14:16:00,65.5,60.0,29.61,South,180,9.6,21.0,84,0.00,,,0.01,Rainwise IP-100,2013-09-10 21:16:00,
2013-09-10 14:21:00,65.4,60.0,29.60,SW,225,13.8,20.0,84,0.00,,,0.01,Rainwise IP-100,2013-09-10 21:21:00,
2013-09-10 14:26:00,65.3,60.0,29.60,WSW,247,9.1,21.0,84,0.00,,,0.01,Rainwise IP-100,2013-09-10 21:26:00,
2013-09-10 14:31:00,65.2,60.0,29.60,SW,225,4.7,19.0,85,0.00,,,0.01,Rainwise IP-100,2013-09-10 21:31:00,
2013-09-10 14:36:00,65.0,60.0,29.60,SSW,202,11.0,22.0,85,0.00,,,0.01,Rainwise IP-100,2013-09-10 21:36:00,
2013-09-10 14:41:00,64.9,60.0,29.60,SW,225,10.0,19.0,85,0.00,,,0.01,Rainwise IP-100,2013-09-10 21:41:00,
2013-09-10 14:46:00,65.1,60.0,29.61,SW,225,12.8,19.0,85,0.00,,,0.01,Rainwise IP-100,2013-09-10 21:46:00,
2013-09-10 14:51:00,65.5,61.0,29.60,WSW,247,11.2,16.0,85,0.00,,,0.01,Rainwise IP-100,2013-09-10 21:51:00,
2013-09-10 14:56:00,65.6,61.0,29.61,SW,225,7.0,17.0,85,0.00,,,0.01,Rainwise IP-100,2013-09-10 21:56:00,
2013-09-10 15:01:00,65.9,61.0,29.61,SSW,202,22.2,22.2,84,0.00,,,0.01,Rainwise IP-100,2013-09-10 22:01:00,
2013-09-10 15:06:00,65.7,60.0,29.61,WNW,292,8.4,26.0,84,0.00,,,0.01,Rainwise IP-100,2013-09-10 22:06:00,
2013-09-10 15:11:00,65.5,60.0,29.61,SW,225,13.1,16.0,84,0.00,,,0.01,Rainwise IP-100,2013-09-10 22:11:00,
2013-09-10 15:16:00,65.7,60.0,29.61,SW,225,6.8,16.0,84,0.00,,,0.01,Rainwise IP-100,2013-09-10 22:16:00,
2013-09-10 15:21:00,65.5,61.0,29.61,SW,225,6.1,18.0,85,0.00,,,0.01,Rainwise IP-100,2013-09-10 22:21:00,
2013-09-10 15:26:00,65.5,61.0,29.61,SSW,202,3.3,15.0,85,0.00,,,0.01,Rainwise IP-100,2013-09-10 22:26:00,
2013-09-10 15:31:00,65.6,61.0,29.61,SSW,202,7.2,14.0,85,0.00,,,0.01,Rainwise IP-100,2013-09-10 22:31:00,
2013-09-10 15:36:00,65.8,60.0,29.61,SW,225,5.6,14.0,84,0.00,,,0.01,Rainwise IP-100,2013-09-10 22:36:00,
2013-09-10 15:41:00,65.7,60.0,29.61,SW,225,11.2,15.0,84,0.00,,,0.01,Rainwise IP-100,2013-09-10 22:41:00,
2013-09-10 15:46:00,65.4,60.0,29.61,WSW,247,11.0,18.0,84,0.00,,,0.01,Rainwise IP-100,2013-09-10 22:46:00,
2013-09-10 15:51:00,65.4,60.0,29.60,SW,225,11.7,15.0,84,0.00,,,0.01,Rainwise IP-100,2013-09-10 22:51:00,
2013-09-10 15:56:00,65.1,60.0,29.61,WSW,247,8.6,15.0,85,0.00,,,0.01,Rainwise IP-100,2013-09-10 22:56:00,
2013-09-10 16:01:00,65.1,60.0,29.60,SW,225,7.9,15.0,85,0.00,,,0.01,Rainwise IP-100,2013-09-10 23:01:00,
2013-09-10 16:06:00,64.9,60.0,29.60,SSW,202,6.5,20.0,85,0.00,,,0.01,Rainwise IP-100,2013-09-10 23:06:00,
2013-09-10 16:11:00,64.6,60.0,29.60,SSW,202,5.4,14.0,86,0.00,,,0.01,Rainwise IP-100,2013-09-10 23:11:00,
2013-09-10 16:16:00,64.9,60.0,29.60,SSW,202,5.1,14.0,86,0.00,,,0.01,Rainwise IP-100,2013-09-10 23:16:00,
2013-09-10 16:21:00,64.9,60.0,29.60,SW,225,13.1,17.0,86,0.00,,,0.01,Rainwise IP-100,2013-09-10 23:21:00,
2013-09-10 16:26:00,64.6,60.0,29.60,SW,225,6.8,17.0,86,0.00,,,0.01,Rainwise IP-100,2013-09-10 23:26:00,
2013-09-10 16:31:00,64.6,60.0,29.60,SW,225,7.2,17.0,86,0.00,,,0.01,Rainwise IP-100,2013-09-10 23:31:00,
2013-09-10 16:36:00,64.6,60.0,29.60,West,270,10.7,17.0,86,0.00,,,0.01,Rainwise IP-100,2013-09-10 23:36:00,
2013-09-10 16:41:00,64.4,60.0,29.60,SSW,202,6.3,15.0,87,0.00,,,0.01,Rainwise IP-100,2013-09-10 23:41:00,
2013-09-10 16:46:00,64.1,60.0,29.60,WSW,247,10.3,13.0,87,0.00,,,0.01,Rainwise IP-100,2013-09-10 23:46:00,
2013-09-10 16:51:00,63.9,60.0,29.60,SSW,202,8.4,13.0,87,0.00,,,0.01,Rainwise IP-100,2013-09-10 23:51:00,
2013-09-10 16:53:00,63.9,60.0,29.61,SSW,202,7.7,13.0,87,0.00,,,0.01,Rainwise IP-100,2013-09-10 23:53:00,
2013-09-10 16:58:00,63.7,60.0,29.60,SW,225,7.2,15.0,88,0.00,,,0.01,Rainwise IP-100,2013-09-10 23:58:00,
2013-09-10 17:03:00,63.4,60.0,29.60,SW,225,7.7,16.0,88,0.00,,,0.01,Rainwise IP-100,2013-09-11 00:03:00,
2013-09-10 17:08:00,63.2,60.0,29.60,South,180,6.1,11.0,89,0.00,,,0.01,Rainwise IP-100,2013-09-11 00:08:00,
2013-09-10 17:13:00,63.0,60.0,29.61,SW,225,7.2,13.0,89,0.00,,,0.01,Rainwise IP-100,2013-09-11 00:13:00,
2013-09-10 17:18:00,62.9,60.0,29.61,SW,225,6.3,12.0,89,0.00,,,0.01,Rainwise IP-100,2013-09-11 00:18:00,
2013-09-10 17:23:00,62.9,60.0,29.61,SSW,202,6.8,10.0,90,0.00,,,0.01,Rainwise IP-100,2013-09-11 00:23:00,
2013-09-10 17:28:00,62.9,60.0,29.61,SSW,202,8.4,12.0,90,0.00,,,0.01,Rainwise IP-100,2013-09-11 00:28:00,
2013-09-10 17:33:00,62.7,59.0,29.61,SW,225,6.3,15.0,90,0.00,,,0.01,Rainwise IP-100,2013-09-11 00:33:00,
2013-09-10 17:38:00,62.4,59.0,29.61,WSW,247,3.0,17.0,90,0.00,,,0.01,Rainwise IP-100,2013-09-11 00:38:00,
2013-09-10 17:43:00,62.3,59.0,29.60,SW,225,2.1,16.0,91,0.00,,,0.01,Rainwise IP-100,2013-09-11 00:43:00,
2013-09-10 17:48:00,62.3,59.0,29.60,SW,225,7.7,13.0,91,0.00,,,0.01,Rainwise IP-100,2013-09-11 00:48:00,
2013-09-10 17:53:00,62.3,59.0,29.61,SSE,157,1.4,10.0,91,0.00,,,0.01,Rainwise IP-100,2013-09-11 00:53:00,
2013-09-10 17:58:00,62.4,60.0,29.61,SW,225,5.8,13.0,91,0.00,,,0.01,Rainwise IP-100,2013-09-11 00:58:00,
2013-09-10 18:03:00,62.5,60.0,29.61,SSW,202,2.6,10.0,91,0.00,,,0.01,Rainwise IP-100,2013-09-11 01:03:00,
2013-09-10 18:08:00,62.5,60.0,29.61,SSE,157,4.9,16.0,92,0.00,,,0.01,Rainwise IP-100,2013-09-11 01:08:00,
2013-09-10 18:13:00,62.5,60.0,29.61,WSW,247,4.9,16.0,92,0.00,,,0.01,Rainwise IP-100,2013-09-11 01:13:00,
2013-09-10 18:18:00,62.4,60.0,29.61,WSW,247,4.7,12.0,92,0.00,,,0.01,Rainwise IP-100,2013-09-11 01:18:00,
2013-09-10 18:23:00,62.3,60.0,29.61,SW,225,7.7,15.0,92,0.00,,,0.01,Rainwise IP-100,2013-09-11 01:23:00,
2013-09-10 18:28:00,62.2,60.0,29.61,SSW,202,6.5,19.0,92,0.00,,,0.01,Rainwise IP-100,2013-09-11 01:28:00,
2013-09-10 18:33:00,62.1,60.0,29.61,WSW,247,9.1,14.0,93,0.00,,,0.01,Rainwise IP-100,2013-09-11 01:33:00,
2013-09-10 18:38:00,62.2,60.0,29.61,WSW,247,2.8,13.0,93,0.00,,,0.01,Rainwise IP-100,2013-09-11 01:38:00,
2013-09-10 18:43:00,62.3,60.0,29.62,SW,225,4.9,10.0,93,0.00,,,0.01,Rainwise IP-100,2013-09-11 01:43:00,
2013-09-10 18:48:00,62.2,60.0,29.61,South,180,3.7,10.0,93,0.00,,,0.01,Rainwise IP-100,2013-09-11 01:48:00,
2013-09-10 18:53:00,62.0,60.0,29.62,SSW,202,3.7,13.0,93,0.00,,,0.01,Rainwise IP-100,2013-09-11 01:53:00,
2013-09-10 18:58:00,61.9,60.0,29.61,WSW,247,2.8,15.0,93,0.00,,,0.01,Rainwise IP-100,2013-09-11 01:58:00,
2013-09-10 19:03:00,61.8,60.0,29.61,WSW,247,7.2,14.0,94,0.00,,,0.01,Rainwise IP-100,2013-09-11 02:03:00,
2013-09-10 19:08:00,61.8,60.0,29.62,SSE,157,6.8,15.0,94,0.00,,,0.01,Rainwise IP-100,2013-09-11 02:08:00,
2013-09-10 19:13:00,61.7,60.0,29.62,WSW,247,6.3,14.0,94,0.00,,,0.01,Rainwise IP-100,2013-09-11 02:13:00,
2013-09-10 19:18:00,61.7,60.0,29.62,SW,225,6.5,14.0,95,0.00,,,0.01,Rainwise IP-100,2013-09-11 02:18:00,
2013-09-10 19:23:00,61.7,60.0,29.62,WSW,247,6.8,13.0,95,0.00,,,0.01,Rainwise IP-100,2013-09-11 02:23:00,
2013-09-10 19:28:00,61.7,60.0,29.62,SW,225,4.2,11.0,95,0.00,,,0.01,Rainwise IP-100,2013-09-11 02:28:00,
2013-09-10 19:33:00,61.7,60.0,29.62,SSW,202,7.7,13.0,95,0.00,,,0.01,Rainwise IP-100,2013-09-11 02:33:00,
2013-09-10 19:38:00,61.7,60.0,29.62,WSW,247,9.8,14.0,95,0.00,,,0.01,Rainwise IP-100,2013-09-11 02:38:00,
2013-09-10 19:43:00,61.7,60.0,29.63,WSW,247,7.2,12.0,96,0.00,,,0.01,Rainwise IP-100,2013-09-11 02:43:00,
2013-09-10 19:48:00,61.7,60.0,29.62,SW,225,4.4,9.0,96,0.00,,,0.01,Rainwise IP-100,2013-09-11 02:48:00,
2013-09-10 19:53:00,61.7,60.0,29.62,WSW,247,6.1,9.0,96,0.00,,,0.01,Rainwise IP-100,2013-09-11 02:53:00,
2013-09-10 19:58:00,61.6,60.0,29.62,WSW,247,5.1,14.0,96,0.00,,,0.01,Rainwise IP-100,2013-09-11 02:58:00,
2013-09-10 20:03:00,61.6,60.0,29.62,SW,225,5.8,9.0,96,0.00,,,0.01,Rainwise IP-100,2013-09-11 03:03:00,
2013-09-10 20:08:00,61.6,60.0,29.63,SW,225,8.6,14.0,96,0.00,,,0.01,Rainwise IP-100,2013-09-11 03:08:00,
2013-09-10 20:13:00,61.6,60.0,29.63,SSW,202,7.7,14.0,96,0.00,,,0.01,Rainwise IP-100,2013-09-11 03:13:00,
2013-09-10 20:18:00,61.5,60.0,29.64,SW,225,7.0,13.0,96,0.00,,,0.01,Rainwise IP-100,2013-09-11 03:18:00,
2013-09-10 20:23:00,61.6,60.0,29.64,WSW,247,5.4,12.0,96,0.00,,,0.01,Rainwise IP-100,2013-09-11 03:23:00,
2013-09-10 20:28:00,61.6,60.0,29.64,SSW,202,2.8,15.0,96,0.00,,,0.01,Rainwise IP-100,2013-09-11 03:28:00,
2013-09-10 20:33:00,61.7,60.0,29.64,SW,225,8.6,9.0,96,0.00,,,0.01,Rainwise IP-100,2013-09-11 03:33:00,
2013-09-10 20:38:00,61.7,60.0,29.65,SSW,202,6.5,8.0,96,0.00,,,0.01,Rainwise IP-100,2013-09-11 03:38:00,
2013-09-10 20:43:00,61.7,60.0,29.65,SSW,202,6.5,13.0,96,0.00,,,0.01,Rainwise IP-100,2013-09-11 03:43:00,
2013-09-10 20:48:00,61.8,60.0,29.64,WSW,247,9.6,10.0,96,0.00,,,0.01,Rainwise IP-100,2013-09-11 03:48:00,
2013-09-10 20:53:00,62.0,61.0,29.65,West,270,3.5,9.0,96,0.00,,,0.01,Rainwise IP-100,2013-09-11 03:53:00,
2013-09-10 20:58:00,62.0,60.0,29.65,WSW,247,4.2,11.0,95,0.00,,,0.01,Rainwise IP-100,2013-09-11 03:58:00,
2013-09-10 21:01:00,62.1,60.0,29.64,WSW,247,4.0,12.0,95,0.00,,,0.01,Rainwise IP-100,2013-09-11 04:01:00,
2013-09-10 21:06:00,62.2,60.0,29.64,SW,225,7.5,11.0,95,0.00,,,0.01,Rainwise IP-100,2013-09-11 04:06:00,
2013-09-10 21:11:00,62.2,60.0,29.65,WSW,247,4.2,12.0,95,0.00,,,0.01,Rainwise IP-100,2013-09-11 04:11:00,
2013-09-10 21:16:00,62.3,60.0,29.65,SW,225,6.3,11.0,94,0.00,,,0.01,Rainwise IP-100,2013-09-11 04:16:00,
2013-09-10 21:21:00,62.4,61.0,29.65,SW,225,5.6,13.0,94,0.00,,,0.01,Rainwise IP-100,2013-09-11 04:21:00,
2013-09-10 21:26:00,62.3,60.0,29.65,SW,225,5.1,10.0,94,0.00,,,0.01,Rainwise IP-100,2013-09-11 04:26:00,
2013-09-10 21:28:00,62.3,60.0,29.65,SW,225,9.8,10.0,94,0.00,,,0.01,Rainwise IP-100,2013-09-11 04:28:00,
2013-09-10 21:33:00,62.3,60.0,29.66,SSW,202,6.8,15.0,94,0.00,,,0.01,Rainwise IP-100,2013-09-11 04:33:00,
2013-09-10 21:38:00,62.2,60.0,29.65,SW,225,5.8,13.0,93,0.00,,,0.01,Rainwise IP-100,2013-09-11 04:38:00,
2013-09-10 21:43:00,62.2,60.0,29.66,SW,225,11.0,11.0,93,0.00,,,0.01,Rainwise IP-100,2013-09-11 04:43:00,
2013-09-10 21:48:00,62.1,60.0,29.66,WSW,247,3.5,15.0,93,0.00,,,0.01,Rainwise IP-100,2013-09-11 04:48:00,
2013-09-10 21:53:00,62.1,60.0,29.66,SSW,202,6.5,14.0,93,0.00,,,0.01,Rainwise IP-100,2013-09-11 04:53:00,
2013-09-10 21:58:00,62.1,60.0,29.66,WSW,247,2.3,12.0,93,0.00,,,0.01,Rainwise IP-100,2013-09-11 04:58:00,
2013-09-10 22:03:00,62.1,60.0,29.66,WSW,247,6.1,8.0,93,0.00,,,0.01,Rainwise IP-100,2013-09-11 05:03:00,
2013-09-10 22:08:00,62.1,60.0,29.66,SW,225,8.6,10.0,93,0.00,,,0.01,Rainwise IP-100,2013-09-11 05:08:00,
2013-09-10 22:13:00,62.1,60.0,29.66,SW,225,5.8,11.0,93,0.00,,,0.01,Rainwise IP-100,2013-09-11 05:13:00,
2013-09-10 22:18:00,62.0,60.0,29.66,SW,225,6.5,10.0,93,0.00,,,0.01,Rainwise IP-100,2013-09-11 05:18:00,
2013-09-10 22:23:00,62.0,60.0,29.67,SSW,202,5.6,10.0,93,0.00,,,0.01,Rainwise IP-100,2013-09-11 05:23:00,
2013-09-10 22:28:00,62.0,60.0,29.67,SW,225,6.1,10.0,93,0.00,,,0.01,Rainwise IP-100,2013-09-11 05:28:00,
2013-09-10 22:33:00,62.0,60.0,29.67,SSW,202,4.2,12.0,93,0.00,,,0.01,Rainwise IP-100,2013-09-11 05:33:00,
2013-09-10 22:38:00,62.0,60.0,29.67,SSW,202,4.0,13.0,93,0.00,,,0.01,Rainwise IP-100,2013-09-11 05:38:00,
2013-09-10 22:43:00,62.0,60.0,29.67,SW,225,7.9,8.0,93,0.00,,,0.01,Rainwise IP-100,2013-09-11 05:43:00,
2013-09-10 22:48:00,62.0,60.0,29.67,SW,225,4.9,11.0,93,0.00,,,0.01,Rainwise IP-100,2013-09-11 05:48:00,
2013-09-10 22:53:00,62.0,60.0,29.67,SW,225,5.6,11.0,93,0.00,,,0.01,Rainwise IP-100,2013-09-11 05:53:00,
2013-09-10 22:58:00,62.0,60.0,29.67,SSW,202,4.4,11.0,93,0.00,,,0.01,Rainwise IP-100,2013-09-11 05:58:00,
2013-09-10 23:03:00,61.9,60.0,29.67,SW,225,7.2,9.0,93,0.00,,,0.01,Rainwise IP-100,2013-09-11 06:03:00,
2013-09-10 23:08:00,61.9,60.0,29.67,SSW,202,5.1,11.0,93,0.00,,,0.01,Rainwise IP-100,2013-09-11 06:08:00,
2013-09-10 23:13:00,61.9,60.0,29.67,WSW,247,4.7,9.0,93,0.00,,,0.01,Rainwise IP-100,2013-09-11 06:13:00,
2013-09-10 23:18:00,62.0,60.0,29.68,WSW,247,5.4,8.0,93,0.00,,,0.01,Rainwise IP-100,2013-09-11 06:18:00,
2013-09-10 23:23:00,62.0,60.0,29.67,SSW,202,5.1,10.0,93,0.00,,,0.01,Rainwise IP-100,2013-09-11 06:23:00,
2013-09-10 23:28:00,62.0,60.0,29.67,SSW,202,3.0,10.0,93,0.00,,,0.01,Rainwise IP-100,2013-09-11 06:28:00,
2013-09-10 23:33:00,62.0,60.0,29.67,WSW,247,3.0,10.0,93,0.00,,,0.01,Rainwise IP-100,2013-09-11 06:33:00,
2013-09-10 23:38:00,62.0,60.0,29.67,SSW,202,5.1,9.0,93,0.00,,,0.01,Rainwise IP-100,2013-09-11 06:38:00,
2013-09-10 23:43:00,62.0,60.0,29.67,SSW,202,3.7,8.0,93,0.00,,,0.01,Rainwise IP-100,2013-09-11 06:43:00,
2013-09-10 23:48:00,62.0,60.0,29.68,SSW,202,7.2,7.2,93,0.00,,,0.01,Rainwise IP-100,2013-09-11 06:48:00,
2013-09-10 23:53:00,62.0,60.0,29.68,SSW,202,3.7,9.0,93,0.00,,,0.01,Rainwise IP-100,2013-09-11 06:53:00,
2013-09-10 23:58:00,62.1,60.0,29.67,West,270,6.3,8.0,92,0.00,,,0.01,Rainwise IP-100,2013-09-11 06:58:00,